Wind_Speed
36 35 35 34 33 33 33 32 31 30 31 30 29 29 28 27 27 26 26 25 25 25 24 24 24 24 24 24 24 24 24 24 24 24 24 24 24 24 25 25 25 25 25
37 36 36 35 35 34 33 33 33 33 32 32 31 30 29 29 29 28 28 27 27 27 26 26 26 26 26 25 26 26 26 26 26 26 26 26 26 26 26 27 27 27 27
37 37 36 36 36 36 35 33 33 34 33 33 32 32 31 31 31 30 29 30 29 29 29 28 28 28 28 28 28 28 28 28 28 28 28 28 28 28 29 29 29 30 30
37 37 38 37 37 36 36 34 34 34 34 34 33 33 32 32 33 32 32 32 32 31 31 31 30 30 30 30 30 30 30 30 30 31 30 30 31 31 31 32 32 32 32
37 37 38 38 37 36 36 36 36 35 34 34 34 34 34 33 33 33 33 33 33 33 33 33 32 32 32 32 32 33 32 32 32 33 32 32 33 33 33 34 34 34 34
36 36 37 38 37 36 35 36 36 35 35 34 34 34 34 34 34 34 33 33 33 34 34 34 34 34 34 34 34 34 34 34 34 34 34 35 35 35 35 35 36 36 36
37 36 36 36 36 36 34 34 35 35 35 35 35 35 34 34 34 34 34 33 34 34 34 35 35 35 35 35 35 35 35 35 36 36 37 37 37 38 38 38 38 38 39
36 36 35 36 36 36 36 35 34 34 35 36 37 36 36 35 36 35 35 35 35 35 36 36 36 36 36 37 37 38 38 38 38 38 39 39 40 40 40 40 40 41 41
34 34 34 35 35 35 36 36 35 34 35 37 37 37 37 37 37 37 37 38 38 38 39 39 39 39 39 39 39 40 40 40 41 41 41 41 42 43 43 43 43 43 43
32 33 33 33 33 33 35 35 36 36 36 37 38 39 39 38 38 38 38 39 40 40 40 41 41 41 42 42 42 42 42 42 42 43 43 44 44 45 45 45 46 46 46
32 33 33 33 33 33 34 34 35 36 36 37 38 39 39 39 40 40 39 40 40 41 42 42 43 43 44 44 44 43 44 44 44 44 45 46 46 47 47 48 48 48 48
32 33 34 34 34 34 34 35 36 37 37 38 39 39 40 40 40 41 41 42 42 43 43 44 45 45 45 45 45 45 45 46 46 47 47 48 48 48 49 49 50 50 50
33 34 35 35 34 35 35 36 38 39 39 39 40 40 41 42 42 42 43 44 44 44 45 45 46 46 46 46 47 47 47 48 49 50 50 50 50 50 50 51 51 51 52
34 34 35 35 35 35 35 37 39 40 41 41 41 41 42 43 43 44 44 45 45 46 46 46 47 47 47 48 48 49 50 51 51 51 52 52 52 52 52 52 53 54 54
34 35 35 35 35 36 37 38 39 41 42 42 42 42 43 44 45 46 47 47 47 46 47 47 47 48 49 50 50 51 52 53 53 54 54 54 55 54 54 54 54 55 55
35 36 36 37 37 38 38 38 39 40 42 43 44 44 45 45 46 48 48 48 49 49 49 48 49 49 50 51 51 53 53 54 54 54 55 54 54 55 55 55 55 55 56
35 36 37 37 37 37 38 38 39 41 42 44 45 45 46 47 48 48 49 49 50 50 50 50 50 50 51 52 53 54 54 55 55 55 55 55 54 54 55 56 56 56 56
35 35 36 36 36 37 38 39 40 41 43 44 46 46 46 47 49 49 49 50 50 50 51 51 51 52 53 53 54 54 54 55 55 55 55 55 55 55 55 56 57 57 57
34 34 35 37 37 38 38 39 41 42 43 44 46 47 47 47 48 48 49 50 51 52 52 52 53 54 55 56 55 55 56 56 55 55 55 55 56 57 57 57 57 57 58
36 37 37 38 38 39 40 41 42 43 44 46 47 48 48 49 49 49 50 51 52 52 53 54 54 54 55 56 56 56 56 57 56 57 57 57 57 58 58 58 58 58 59
35 37 38 39 40 40 41 42 43 44 45 47 48 48 49 50 50 50 51 51 52 53 53 54 54 54 54 55 55 56 57 57 57 58 58 58 58 58 58 58 58 58 58
34 36 38 40 41 42 43 44 44 44 46 47 48 49 49 49 50 50 51 51 51 51 52 53 53 54 54 54 54 56 57 57 57 57 58 58 58 58 57 57 56 56 56
33 34 36 39 40 42 44 44 44 45 45 46 47 47 48 48 48 49 49 50 50 51 52 52 52 52 52 52 54 55 56 56 56 56 57 56 57 57 57 56 56 55 54
34 36 37 38 39 41 42 43 43 44 44 45 45 45 46 46 47 48 48 49 50 50 51 51 51 51 52 52 53 54 54 54 54 55 56 55 55 55 55 55 54 53 53
36 36 37 38 39 40 41 42 43 43 44 44 44 45 46 47 47 48 48 49 49 49 49 49 50 50 50 51 52 53 52 52 52 52 53 52 52 52 52 52 52 52 52
37 38 38 38 39 40 40 41 42 43 43 43 44 45 46 46 47 47 48 48 48 48 48 48 49 50 50 50 51 51 51 51 51 50 50 50 50 50 50 50 50 50 50
Wind_Direction
239 240 241 242 242 243 244 244 246 248 248 247 248 250 252 254 255 256 258 259 260 262 263 265 267 269 271 273 275 277 279 281 282 282 283 283 284 286 287 287 287 287 288
238 239 241 243 242 242 244 243 244 247 247 247 249 250 251 253 255 256 257 259 260 262 263 264 266 268 271 273 275 277 279 280 281 282 282 283 284 285 286 287 287 287 287
238 240 240 242 242 242 243 245 246 247 247 247 248 249 251 252 254 256 257 259 261 262 262 264 265 267 269 272 275 276 278 279 281 281 281 282 283 285 286 286 286 287 287
238 240 240 241 242 242 244 244 246 247 246 248 249 250 252 252 253 256 258 260 262 262 262 263 266 267 269 271 273 275 277 279 280 280 280 281 283 285 284 284 285 286 286
239 241 240 241 241 242 243 244 246 246 246 248 250 251 252 252 254 256 258 260 261 262 262 263 266 268 269 271 273 275 276 277 278 279 280 281 282 283 284 284 284 285 286
239 239 239 239 239 241 243 244 245 246 247 248 250 251 253 254 255 257 258 260 261 261 262 263 266 268 270 271 273 274 276 277 277 278 279 280 281 283 284 284 284 285 286
237 238 239 240 240 241 244 246 247 248 249 249 250 251 254 255 256 257 259 261 261 262 263 265 266 269 270 271 272 274 276 277 278 278 279 280 280 282 283 284 284 285 285
239 239 240 242 243 243 244 247 248 250 250 251 252 253 256 258 258 259 261 262 263 263 264 266 267 269 271 273 273 274 275 276 277 278 279 280 281 282 283 284 284 284 284
241 242 242 244 246 246 248 249 251 252 253 253 253 255 258 260 262 262 263 264 264 265 266 267 268 270 272 273 275 275 276 276 277 278 278 280 281 281 282 282 283 283 284
240 242 244 246 248 250 251 253 253 254 256 256 256 258 259 261 263 264 265 265 265 266 267 268 269 270 272 273 275 275 276 277 277 278 278 279 280 280 281 281 282 282 283
240 244 247 248 249 251 253 254 255 256 258 258 259 260 261 262 263 265 266 266 266 266 267 269 270 271 272 273 274 275 276 276 277 277 278 279 279 279 280 280 281 282 282
242 245 247 249 250 252 254 254 256 257 258 260 260 261 262 264 265 266 266 267 267 267 268 270 270 271 271 272 273 274 275 276 276 277 278 278 279 280 280 280 281 281 281
243 246 249 251 253 254 255 256 257 257 258 260 260 262 263 264 265 266 267 267 268 268 269 270 270 272 273 273 273 273 274 275 276 277 277 278 278 279 279 279 280 280 281
244 247 251 253 254 255 257 259 259 258 259 261 262 263 263 264 265 267 268 268 268 268 268 270 271 272 272 273 273 273 274 275 277 277 277 278 278 279 279 279 279 280 280
246 248 253 255 257 258 260 261 262 262 261 261 262 264 265 266 267 268 268 269 269 270 269 270 271 272 272 272 273 275 275 276 277 278 279 278 279 279 279 279 279 279 279
249 252 253 256 260 261 262 263 264 264 263 262 263 265 266 267 268 268 268 269 269 270 271 271 272 272 273 273 274 275 276 276 277 278 279 279 279 279 279 279 279 279 280
253 256 257 258 261 262 263 264 265 265 263 263 263 264 266 268 268 269 269 269 270 271 271 271 272 274 275 275 274 275 275 276 276 277 278 279 280 280 280 280 280 280 280
256 258 258 260 261 262 264 265 266 266 265 264 264 265 267 268 269 269 270 270 270 271 271 272 272 274 275 275 274 274 275 276 277 278 278 279 279 280 280 280 280 280 280
258 261 262 263 264 264 265 266 267 268 267 266 266 267 268 269 270 271 271 271 271 272 272 273 274 274 274 275 275 275 276 277 278 280 279 279 279 279 279 279 280 280 281
262 263 266 267 267 267 267 268 269 269 269 268 268 269 269 270 271 271 272 273 273 273 274 275 275 276 276 275 276 277 278 278 279 279 279 279 279 280 279 280 280 280 280
267 267 268 269 269 270 270 271 272 272 271 270 270 271 271 271 272 273 273 274 274 274 275 276 276 277 277 276 277 278 279 279 279 279 279 279 280 280 280 280 280 280 280
273 272 270 270 271 272 272 273 273 273 273 272 272 272 272 273 273 274 274 274 275 275 275 277 277 278 278 278 278 279 280 279 279 279 279 278 278 279 279 281 281 280 279
277 275 274 272 272 273 273 273 273 274 274 273 272 272 273 273 273 274 275 275 276 277 277 278 279 280 280 280 280 281 281 280 280 279 278 279 279 280 280 281 281 280 280
278 277 276 277 277 277 276 276 276 275 275 275 274 275 275 275 275 276 276 276 277 278 279 279 280 281 281 282 282 282 282 281 280 280 279 280 279 280 280 281 280 280 280
279 279 278 279 279 279 279 278 278 277 277 276 276 276 277 277 277 277 276 276 277 278 278 279 280 281 282 283 283 282 281 281 281 280 279 280 279 280 280 280 280 280 280
280 279 279 280 280 280 280 280 279 278 278 277 277 277 278 278 278 277 277 278 278 278 278 279 281 282 282 282 282 282 282 282 282 280 280 280 280 280 281 281 280 280 280
Height
5793 5795 5798 5800 5803 5805 5807 5809 5810 5812 5813 5814 5816 5817 5818 5820 5820 5821 5822 5822 5822 5822 5822 5822 5822 5822 5822 5822 5821 5821 5820 5819 5819 5818 5817 5816 5815 5814 5813 5812 5811 5810 5808
5785 5788 5790 5793 5795 5798 5800 5801 5803 5805 5806 5808 5809 5811 5812 5813 5814 5815 5816 5816 5816 5817 5817 5817 5817 5817 5816 5816 5816 5815 5815 5814 5813 5812 5811 5810 5809 5808 5807 5806 5805 5804 5803
5777 5780 5783 5785 5788 5790 5792 5794 5796 5797 5799 5800 5802 5804 5805 5807 5808 5809 5809 5810 5810 5810 5810 5810 5810 5810 5810 5810 5810 5809 5808 5808 5807 5806 5805 5804 5803 5802 5801 5800 5799 5797 5796
5769 5772 5775 5777 5780 5782 5784 5786 5788 5790 5792 5793 5795 5797 5798 5799 5801 5802 5803 5803 5803 5804 5804 5804 5804 5804 5804 5803 5803 5802 5802 5801 5800 5799 5798 5797 5796 5795 5794 5793 5791 5790 5789
5761 5764 5767 5769 5772 5774 5776 5779 5781 5782 5784 5786 5788 5789 5791 5792 5793 5794 5795 5796 5796 5796 5797 5797 5797 5797 5796 5796 5796 5795 5794 5793 5793 5792 5791 5790 5789 5787 5786 5785 5784 5782 5781
5753 5756 5759 5761 5764 5766 5769 5771 5773 5775 5777 5779 5780 5782 5783 5784 5785 5786 5787 5788 5788 5789 5789 5789 5789 5789 5789 5788 5788 5787 5786 5786 5785 5784 5783 5782 5781 5779 5778 5777 5775 5774 5773
5744 5748 5750 5753 5756 5759 5761 5763 5765 5767 5769 5771 5773 5774 5775 5776 5777 5778 5779 5780 5780 5780 5781 5781 5781 5781 5780 5780 5779 5779 5778 5777 5776 5775 5774 5773 5772 5771 5769 5768 5767 5765 5763
5736 5739 5742 5745 5748 5751 5753 5756 5758 5760 5761 5763 5765 5766 5767 5769 5769 5770 5771 5772 5772 5772 5772 5772 5772 5772 5772 5771 5770 5769 5769 5768 5767 5766 5765 5764 5762 5761 5760 5758 5757 5755 5754
5729 5732 5735 5738 5740 5743 5745 5748 5750 5752 5753 5754 5756 5758 5759 5760 5761 5762 5762 5763 5763 5763 5763 5763 5763 5763 5762 5761 5761 5760 5759 5758 5757 5756 5755 5754 5752 5751 5749 5748 5746 5745 5743
5722 5725 5728 5730 5733 5735 5737 5739 5741 5743 5744 5746 5747 5748 5749 5750 5751 5752 5753 5753 5753 5753 5753 5753 5753 5752 5752 5751 5750 5749 5748 5747 5746 5745 5744 5743 5741 5740 5738 5737 5735 5733 5732
5714 5717 5720 5722 5725 5727 5729 5731 5732 5734 5735 5736 5737 5738 5739 5740 5741 5742 5743 5743 5743 5743 5743 5742 5742 5742 5741 5740 5739 5738 5737 5736 5735 5733 5732 5731 5729 5728 5726 5725 5723 5721 5719
5707 5709 5712 5714 5716 5718 5720 5722 5723 5725 5726 5727 5728 5729 5729 5730 5731 5731 5732 5732 5733 5733 5732 5731 5731 5730 5729 5729 5728 5727 5725 5724 5723 5721 5720 5718 5717 5715 5713 5712 5710 5708 5707
5699 5702 5704 5706 5708 5709 5711 5713 5714 5715 5716 5717 5718 5718 5719 5719 5720 5720 5720 5721 5721 5721 5721 5720 5719 5719 5718 5717 5716 5714 5713 5712 5710 5709 5707 5705 5704 5702 5700 5699 5697 5695 5693
5692 5694 5696 5698 5699 5700 5702 5703 5704 5704 5705 5706 5707 5707 5707 5708 5708 5709 5709 5709 5709 5709 5709 5708 5707 5706 5706 5705 5703 5702 5700 5699 5697 5695 5694 5692 5690 5689 5687 5685 5683 5681 5679
5683 5685 5687 5689 5690 5691 5691 5692 5693 5694 5695 5695 5696 5696 5697 5697 5697 5697 5697 5696 5697 5696 5697 5696 5695 5694 5693 5692 5690 5689 5687 5685 5683 5682 5680 5678 5676 5674 5672 5670 5668 5666 5664
5675 5676 5678 5679 5680 5681 5681 5682 5683 5683 5684 5684 5685 5685 5685 5685 5685 5684 5684 5683 5683 5683 5683 5683 5682 5680 5679 5678 5676 5675 5673 5671 5669 5667 5665 5663 5661 5659 5657 5655 5653 5651 5649
5666 5667 5669 5670 5670 5671 5672 5672 5672 5673 5673 5673 5673 5673 5673 5672 5672 5672 5671 5670 5670 5669 5669 5669 5668 5666 5665 5663 5662 5660 5658 5656 5654 5652 5650 5648 5646 5644 5642 5640 5638 5635 5633
5657 5658 5659 5660 5660 5661 5661 5661 5661 5661 5661 5661 5661 5660 5660 5659 5659 5658 5658 5657 5656 5655 5654 5654 5653 5652 5650 5648 5647 5645 5643 5641 5639 5637 5635 5633 5631 5628 5626 5624 5622 5619 5617
5648 5649 5649 5650 5650 5650 5650 5649 5649 5649 5648 5648 5648 5647 5647 5646 5646 5645 5644 5643 5642 5641 5639 5639 5639 5637 5635 5633 5632 5630 5628 5626 5624 5622 5619 5617 5615 5612 5610 5607 5605 5603 5601
5638 5638 5639 5639 5639 5638 5638 5638 5637 5637 5636 5635 5635 5634 5633 5633 5632 5631 5630 5629 5628 5626 5625 5624 5623 5622 5620 5618 5616 5615 5613 5610 5608 5606 5603 5600 5598 5595 5593 5591 5589 5586 5584
5628 5628 5627 5627 5627 5627 5626 5626 5625 5624 5623 5623 5622 5621 5620 5619 5618 5617 5616 5615 5613 5612 5611 5609 5608 5606 5605 5603 5601 5599 5597 5595 5592 5589 5586 5584 5581 5578 5575 5573 5571 5569 5567
5618 5617 5616 5616 5615 5615 5614 5613 5612 5611 5610 5609 5608 5608 5606 5605 5604 5603 5601 5600 5599 5597 5596 5595 5593 5591 5590 5587 5585 5582 5580 5578 5576 5574 5570 5567 5564 5561 5558 5556 5554 5552 5550
5608 5607 5606 5605 5604 5603 5602 5601 5599 5598 5597 5596 5594 5593 5593 5591 5590 5589 5587 5586 5584 5582 5581 5580 5578 5576 5574 5572 5569 5567 5563 5560 5558 5555 5552 5551 5547 5545 5542 5539 5537 5535 5533
5598 5597 5595 5594 5593 5591 5590 5588 5587 5585 5584 5583 5581 5580 5579 5577 5576 5575 5573 5572 5570 5568 5567 5565 5563 5561 5558 5555 5553 5550 5547 5544 5542 5539 5536 5535 5532 5529 5526 5523 5520 5519 5517
5588 5586 5585 5583 5581 5580 5578 5576 5574 5573 5572 5570 5569 5567 5565 5564 5562 5560 5559 5558 5557 5555 5552 5550 5548 5545 5543 5540 5537 5534 5531 5529 5527 5524 5521 5519 5517 5515 5512 5508 5504 5502 5501
5578 5576 5574 5572 5570 5568 5566 5564 5562 5561 5560 5558 5556 5554 5552 5550 5548 5546 5545 5543 5542 5540 5538 5536 5533 5530 5528 5525 5521 5519 5516 5514 5512 5510 5507 5504 5502 5499 5498 5495 5490 5487 5486